Regional Weather Roundup
Issued by NWS

Home | Current Version | Previous Version | Text Only | Print | Product List | Glossary On
Versions: 1 2 3 4 5 6 7 8 9 10 11 12 13 14 15 16 17 18 19 20 21 22 23 24 25 26 27 28 29 30 31 32 33 34 35 36 37 38 39 40 41 42 43 44 45 46 47 48 49 50
000
ASUS43 KBIS 190110
RWRND

NORTH DAKOTA REGIONAL WEATHER ROUNDUP
NATIONAL WEATHER SERVICE BISMARCK ND
700 PM CST SAT NOV 18 2017

NOTE: "FAIR" INDICATES FEW OR NO CLOUDS BELOW 12,000 FEET WITH NO
SIGNIFICANT WEATHER AND/OR OBSTRUCTIONS TO VISIBILITY.


NDZ001>003-009>011-017-190200-
NORTHWEST NORTH DAKOTA

CITY           SKY/WX    TMP DP  RH WIND       PRES   REMARKS
WILLISTON      CLOUDY    27  18  69 W9        30.03F WCI  18
MINOT          CLOUDY    21  12  68 S3        30.02F
MINOT AFB      CLOUDY    13   9  83 CALM      30.01F
$$

NDZ018>021-031>035-040>046-190200-
SOUTHWEST NORTH DAKOTA

CITY           SKY/WX    TMP DP  RH WIND       PRES   REMARKS
BISMARCK       CLOUDY    28  18  66 W6        30.09F
DICKINSON      CLOUDY    24  18  77 W6        30.04F WCI  17
GARRISON         N/A     20  15  81 W7        30.04S WCI  11
HETTINGER ARPT CLOUDY    24  17  74 W8        30.09F WCI  15
$$

NDZ004>008-012>016-024-026-027-054-190200-
NORTHEAST NORTH DAKOTA

CITY           SKY/WX    TMP DP  RH WIND       PRES   REMARKS
GRAND FORKS    MOCLDY    17   9  70 NW10      30.06R WCI   5
GRND FRKS AFB  PTCLDY    17   7  66 W13       30.05S WCI   3
DEVILS LAKE    PTCLDY    13   8  81 W8        30.04F WCI   2
$$

NDZ022-023-025-028>030-036>039-047>053-190200-
SOUTHEAST NORTH DAKOTA

CITY           SKY/WX    TMP DP  RH WIND       PRES   REMARKS
FARGO          CLEAR     17   9  70 W12       30.08S WCI   4
JAMESTOWN      CLEAR     17  10  74 NW6       30.06S WCI   9
$$





USA.gov is the U.S. government's official web portal to all federal, state and local government web resources and services.